Weather History for Auburn-Lewiston, ME

Change the Weather History Date:

Thursday, February 21, 2013

  Actual Average Record
Temperature  
Mean Temperature 22 °F -  
Max Temperature 28 °F 31 °F 50 °F (2003)
Min Temperature 17 °F 14 °F 5 °F (2000)
Degree Days  
Heating Degree Days 42    
Moisture  
Dew Point 11 °F    
Average Humidity 57    
Maximum Humidity 69    
Minimum Humidity 49    
Precipitation  
Precipitation 0.00 in - - ()
Sea Level Pressure  
Sea Level Pressure 29.82 in    
Wind  
Wind Speed 10 mph (NW)    
Max Wind Speed 18 mph    
Max Gust Speed 25 mph    
Visibility 10 miles    
Events      
Averages and records for this station are not official NWS values.
T = Trace of Precipitation, MM = Missing Value Source: NWS Daily Summary

Daily Weather History Graph

Daily Weather History Graph

Search for Another Location

Airport:

Trip Planner

Search our weather history database for the weather conditions in past years. The results will help you decide how hot, cold, wet, or windy it might be!

Date:

Astronomy

Feb. 21, 2013 Rise Set
Actual Time 6:30 AM EST 5:19 PM EST
Civil Twilight 6:01 AM EST 5:48 PM EST
Nautical Twilight 5:28 AM EST 6:22 PM EST
Astronomical Twilight 4:54 AM EST 6:55 PM EST
Moon 1:25 PM EST (2/21) 3:38 AM EST (2/21)
Length of Visible Light 11h 46m
Length of Day
10h 48m
Waxing Gibbous, 83% of the Moon is Illuminated
Feb 21
Waxing Gibbous
Feb 25
Full
Mar 4
Last Quarter
Mar 11
New
Mar 19
First Quarter

Hourly Weather History & Observations

Time (EST) Temp. Windchill Dew Point Humidity Pressure Visibility Wind Dir Wind Speed Gust Speed Precip Events Conditions
12:15 AM 26.6 °F 18.2 °F 12.2 °F 55% 29.63 in 10.0 mi West 8.1 mph - N/A   Mostly Cloudy
12:35 AM 26.6 °F 20.0 °F 12.2 °F 55% 29.63 in 10.0 mi NW 5.8 mph - N/A   Mostly Cloudy
12:55 AM 26.6 °F 21.2 °F 12.2 °F 55% 29.63 in 10.0 mi WNW 4.6 mph - N/A   Clear
1:15 AM 26.6 °F 22.6 °F 12.2 °F 55% 29.63 in 10.0 mi NW 3.5 mph - N/A   Scattered Clouds
1:35 AM 26.6 °F - 12.2 °F 55% 29.63 in 10.0 mi Calm Calm - N/A   Scattered Clouds
1:55 AM 26.6 °F 22.6 °F 12.2 °F 55% 29.64 in 10.0 mi NW 3.5 mph - N/A   Partly Cloudy
2:15 AM 24.8 °F - 14.0 °F 64% 29.64 in 10.0 mi Calm Calm - N/A   Mostly Cloudy
2:55 AM 24.8 °F - 12.2 °F 59% 29.64 in 10.0 mi Calm Calm - N/A   Mostly Cloudy
3:15 AM 24.8 °F 19.1 °F 12.2 °F 59% 29.64 in 10.0 mi NW 4.6 mph - N/A   Scattered Clouds
3:35 AM 24.8 °F 13.4 °F 12.2 °F 59% 29.63 in 10.0 mi NW 12.7 mph 17.3 mph N/A   Clear
3:55 AM 24.8 °F 14.0 °F 8.6 °F 50% 29.64 in 10.0 mi NW 11.5 mph 20.7 mph N/A   Clear
4:15 AM 23.0 °F 10.1 °F 8.6 °F 54% 29.65 in 10.0 mi NW 15.0 mph 21.9 mph N/A   Mostly Cloudy
4:55 AM 21.2 °F 7.8 °F 6.8 °F 54% 29.66 in 10.0 mi NW 15.0 mph 23.0 mph N/A   Clear
5:15 AM 21.2 °F 10.1 °F 6.8 °F 54% 29.67 in 10.0 mi NW 10.4 mph 23.0 mph N/A   Clear
5:35 AM 21.2 °F 8.9 °F 6.8 °F 54% 29.67 in 10.0 mi NW 12.7 mph 19.6 mph N/A   Clear
5:55 AM 19.4 °F 6.6 °F 5.0 °F 54% 29.68 in 10.0 mi NW 12.7 mph - N/A   Clear
6:15 AM 19.4 °F 7.9 °F 5.0 °F 54% 29.70 in 10.0 mi NW 10.4 mph - N/A   Clear
6:55 AM 19.4 °F 6.6 °F 5.0 °F 54% 29.71 in 10.0 mi NW 12.7 mph - N/A   Partly Cloudy
7:15 AM 19.4 °F 8.6 °F 5.0 °F 54% 29.72 in 10.0 mi NW 9.2 mph - N/A   Scattered Clouds
7:35 AM 17.6 °F 3.2 °F 3.2 °F 53% 29.73 in 10.0 mi NW 15.0 mph - N/A   Scattered Clouds
7:55 AM 19.4 °F 6.0 °F 5.0 °F 54% 29.73 in 10.0 mi NW 13.8 mph - N/A   Partly Cloudy
8:15 AM 19.4 °F 6.6 °F 3.2 °F 49% 29.74 in 10.0 mi NW 12.7 mph - N/A   Clear
8:35 AM 19.4 °F 7.9 °F 5.0 °F 54% 29.74 in 10.0 mi NNW 10.4 mph 19.6 mph N/A   Clear
8:55 AM 21.2 °F 10.1 °F 6.8 °F 54% 29.75 in 10.0 mi NNW 10.4 mph - N/A   Clear
9:15 AM 21.2 °F 9.5 °F 5.0 °F 50% 29.75 in 10.0 mi NW 11.5 mph - N/A   Partly Cloudy
9:35 AM 21.2 °F 7.3 °F 5.0 °F 50% 29.75 in 10.0 mi NNW 16.1 mph 23.0 mph N/A   Clear
9:55 AM 21.2 °F 7.8 °F 6.8 °F 54% 29.76 in 10.0 mi NNW 15.0 mph 23.0 mph N/A   Clear
10:15 AM 21.2 °F 7.3 °F 6.8 °F 54% 29.75 in 10.0 mi NW 16.1 mph - N/A   Partly Cloudy
10:35 AM 23.0 °F 9.6 °F 6.8 °F 50% 29.76 in 10.0 mi NW 16.1 mph 21.9 mph N/A   Mostly Cloudy
10:55 AM 23.0 °F 9.6 °F 6.8 °F 50% 29.75 in 10.0 mi NNW 16.1 mph - N/A   Overcast
11:15 AM 23.0 °F 10.1 °F 8.6 °F 54% 29.76 in 10.0 mi NW 15.0 mph 23.0 mph N/A   Overcast
11:35 AM 21.2 °F 6.4 °F 10.4 °F 63% 29.76 in 8.0 mi NW 18.4 mph 25.3 mph N/A   Overcast
12:15 PM 24.8 °F 11.5 °F 10.4 °F 54% 29.76 in 10.0 mi NW 17.3 mph 23.0 mph N/A   Overcast
12:35 PM 24.8 °F 12.4 °F 10.4 °F 54% 29.76 in 10.0 mi NW 15.0 mph 18.4 mph N/A   Overcast
12:55 PM 24.8 °F 14.0 °F 10.4 °F 54% 29.77 in 10.0 mi NNW 11.5 mph - N/A   Overcast
1:15 PM 24.8 °F 12.9 °F 10.4 °F 54% 29.77 in 10.0 mi NW 13.8 mph - N/A   Overcast
1:35 PM 24.8 °F 11.1 °F 10.4 °F 54% 29.78 in 10.0 mi NW 18.4 mph 23.0 mph N/A   Overcast
1:55 PM 24.8 °F 11.1 °F 10.4 °F 54% 29.78 in 10.0 mi NW 18.4 mph 23.0 mph N/A   Overcast
2:15 PM 24.8 °F 13.4 °F 10.4 °F 54% 29.79 in 10.0 mi NNW 12.7 mph 21.9 mph N/A   Overcast
2:35 PM 24.8 °F 11.9 °F 10.4 °F 54% 29.80 in 10.0 mi NW 16.1 mph 24.2 mph N/A   Overcast
2:55 PM 24.8 °F 12.4 °F 10.4 °F 54% 29.81 in 10.0 mi NW 15.0 mph 21.9 mph N/A   Overcast
3:15 PM 24.8 °F 12.9 °F 10.4 °F 54% 29.82 in 10.0 mi NNW 13.8 mph 23.0 mph N/A   Overcast
3:35 PM 26.6 °F 16.2 °F 12.2 °F 55% 29.83 in 10.0 mi NW 11.5 mph 16.1 mph N/A   Overcast
3:55 PM 26.6 °F 14.3 °F 12.2 °F 55% 29.83 in 10.0 mi NW 16.1 mph 21.9 mph N/A   Overcast
4:15 PM 26.6 °F 14.3 °F 12.2 °F 55% 29.84 in 10.0 mi NW 16.1 mph 20.7 mph N/A   Overcast
4:35 PM 26.6 °F 15.7 °F 14.0 °F 59% 29.86 in 10.0 mi NNW 12.7 mph - N/A   Overcast
4:55 PM 26.6 °F 14.7 °F 14.0 °F 59% 29.87 in 10.0 mi NNW 15.0 mph - N/A   Overcast
5:15 PM 26.6 °F 16.2 °F 14.0 °F 59% 29.89 in 10.0 mi NW 11.5 mph - N/A   Overcast
5:35 PM 26.6 °F 15.2 °F 12.2 °F 55% 29.91 in 10.0 mi NW 13.8 mph 19.6 mph N/A   Overcast
6:15 PM 26.6 °F 16.8 °F 12.2 °F 55% 29.94 in 10.0 mi NW 10.4 mph - N/A   Overcast
6:35 PM 26.6 °F 16.2 °F 12.2 °F 55% 29.96 in 10.0 mi NW 11.5 mph - N/A   Overcast
6:55 PM 26.6 °F 15.2 °F 14.0 °F 59% 29.97 in 10.0 mi NNW 13.8 mph - N/A   Overcast
7:15 PM 26.6 °F 14.7 °F 14.0 °F 59% 29.98 in 10.0 mi NNW 15.0 mph 19.6 mph N/A   Overcast
7:35 PM 26.6 °F 16.2 °F 15.8 °F 64% 30.00 in 10.0 mi NW 11.5 mph - N/A   Overcast
7:55 PM 26.6 °F 15.7 °F 15.8 °F 64% 30.01 in 10.0 mi NW 12.7 mph - N/A   Overcast
8:15 PM 26.6 °F 15.2 °F 15.8 °F 64% 30.02 in 10.0 mi NNW 13.8 mph - N/A   Overcast
8:35 PM 26.6 °F 15.2 °F 15.8 °F 64% 30.03 in 10.0 mi NNW 13.8 mph 19.6 mph N/A   Overcast
8:55 PM 26.6 °F 16.2 °F 15.8 °F 64% 30.05 in 10.0 mi NNW 11.5 mph - N/A   Mostly Cloudy
9:15 PM 26.6 °F 16.8 °F 15.8 °F 64% 30.06 in 10.0 mi NW 10.4 mph - N/A   Clear
9:35 PM 26.6 °F 17.5 °F 15.8 °F 64% 30.07 in 10.0 mi NW 9.2 mph - N/A   Clear
9:55 PM 26.6 °F 17.5 °F 15.8 °F 64% 30.08 in 10.0 mi NW 9.2 mph - N/A   Clear
10:15 PM 26.6 °F 15.7 °F 17.6 °F 69% 30.09 in 10.0 mi NNW 12.7 mph - N/A   Clear
10:35 PM 28.4 °F 17.5 °F 17.6 °F 64% 30.09 in 10.0 mi North 13.8 mph - N/A   Clear
10:55 PM 28.4 °F 18.0 °F 17.6 °F 64% 30.09 in 10.0 mi North 12.7 mph - N/A   Clear
11:15 PM 28.4 °F 19.1 °F 17.6 °F 64% 30.10 in 10.0 mi North 10.4 mph - N/A   Clear
11:35 PM 28.4 °F 19.7 °F 17.6 °F 64% 30.12 in 10.0 mi NNW 9.2 mph - N/A   Clear
11:55 PM 28.4 °F 18.5 °F 17.6 °F 64% 30.14 in 10.0 mi NNW 11.5 mph - N/A   Clear